Location: Bruderhein
(53.8035°N, 112.9265°W)
Time: 09:37:42
(UTC+00:00)

Meteor 1-19 Rocket - Pass Details

Date: 29 November 2023
Orbit: 806 x 928 km, 81.2° (Epoch: 04 March)

Event Time Altitude Azimuth Distance (km) Brightness Sun altitude
Rises 12:17:22 0° 350° (N) 3,580 7.4 -26.3°
Reaches altitude 10° 12:22:42 10° 29° (NNE) 2,643 7.1 -25.6°
Maximum altitude 12:23:47 10° 40° (NE) 2,609 7.2 -25.4°
Drops below altitude 10° 12:24:52 10° 50° (NE) 2,642 7.4 -25.2°
Sets 12:30:11 0° 89° (E) 3,573 8.9 -24.5°
